Location: Unspecified
(0.0000°N, 0.0000°E)
Time: 07:17:25
(UTC+00:00)

Vanguard 1 - Visible Passes

Search period start: 23 May 2015 00:00
Search period end: 02 June 2015 00:00
Orbit: 650 x 3835 km, 34.3° (Epoch: 22 May)

Date Brightness Start Highest point End Pass type
(mag) Time Alt. Az. Time Alt. Az. Time Alt. Az.
23 May 14.1 01:43:28 10° NNW 01:56:18 19° N 02:11:19 10° NE visible
23 May 13.9 04:09:50 10° NNW 04:29:45 35° NNE 04:46:49 10° E visible
23 May 10.3 18:50:21 10° SW 18:55:56 67° SE 19:05:45 10° ENE visible
23 May 12.4 21:11:01 10° W 21:18:38 33° NNW 21:31:13 10° NE visible
23 May 13.8 23:37:42 10° NW 23:46:56 18° N 23:58:47 10° NNE visible
24 May 14.1 02:06:01 10° NNW 02:20:13 21° NNE 02:36:30 10° ENE visible
24 May 13.7 04:31:22 10° NW 04:52:45 43° NNE 05:09:51 10° E visible
24 May 10.5 19:11:24 10° WSW 19:17:11 80° NW 19:27:38 10° NE visible
24 May 12.9 21:33:30 10° WNW 21:41:03 25° NNW 21:52:30 10° NNE visible
25 May 13.9 00:01:23 10° NW 00:10:31 16° N 00:22:02 10° NNE visible
25 May 14.1 02:28:01 10° NNW 02:43:58 25° NNE 03:01:32 10° ENE visible
25 May 13.5 04:52:53 10° NW 05:15:27 53° NNE 05:32:22 10° ESE visible
25 May 11.2 19:32:47 10° WSW 19:38:43 52° NNW 19:49:10 10° NE visible
25 May 13.3 21:56:28 10° WNW 22:03:44 20° NNW 22:13:48 10° NNE visible
26 May 14.0 00:24:40 10° NNW 00:34:15 16° N 00:46:26 10° NE visible
26 May 14.0 02:49:39 10° NNW 03:07:27 30° NNE 03:26:01 10° E visible
26 May 13.2 05:14:27 10° NW 05:37:52 65° NNE 05:54:26 10° ESE visible
26 May 11.9 19:54:33 10° W 20:00:32 36° NNW 20:10:27 10° NE visible
26 May 13.6 22:19:58 10° NW 22:26:40 16° N 22:35:19 10° NNE visible
27 May 14.0 00:47:15 10° NNW 00:58:01 18° NNE 01:11:51 10° NE visible
27 May 13.8 03:11:04 10° NNW 03:30:37 37° NNE 03:49:50 10° E visible
27 May 12.5 20:16:44 10° WNW 20:22:37 25° NNW 20:31:29 10° NNE visible
27 May 13.7 22:43:45 10° NNW 22:49:50 14° N 22:57:22 10° NNE visible
28 May 14.1 01:09:11 10° NNW 01:21:42 21° NNE 01:37:38 10° ENE visible
28 May 13.6 03:32:25 10° NW 03:53:30 45° NNE 04:13:00 10° E visible
28 May 10.3 18:16:46 10° WSW 18:21:42 68° NW 18:29:37 10° NE visible
28 May 13.0 20:39:30 10° WNW 20:44:56 18° NNW 20:52:20 10° NNE visible
28 May 13.9 23:07:20 10° NNW 23:13:12 13° N 23:20:34 10° NNE visible
29 May 14.0 01:30:43 10° NNW 01:45:11 25° NNE 02:03:07 10° ENE visible
29 May 13.4 03:53:46 10° NW 04:16:07 56° NNE 04:35:37 10° ESE visible
29 May 11.3 18:38:17 10° W 18:43:12 41° NNW 18:50:52 10° NE visible
29 May 13.3 21:02:59 10° NW 21:07:30 14° N 21:12:58 10° NNE visible
29 May 13.9 23:30:03 10° NNW 23:36:41 14° N 23:45:26 10° NE visible
30 May 13.9 01:51:59 10° NNW 02:08:23 30° NNE 02:27:56 10° E visible
30 May 13.2 04:15:13 10° NW 04:38:29 68° NE 04:57:47 10° ESE visible
30 May 12.1 19:00:16 10° W 19:04:58 26° NNW 19:11:48 10° NNE visible
30 May 13.6 21:27:32 10° NNW 21:30:17 11° N 21:33:12 10° N visible
30 May 14.0 23:51:52 10° NNW 00:00:09 16° NNE 00:11:31 10° NE visible
31 May 13.7 02:13:09 10° NNW 02:31:19 38° NNE 02:51:59 10° E visible
31 May 13.0 04:36:50 10° NW 05:00:39 82° NE 05:19:35 10° SE visible
31 May 12.6 19:22:50 10° WNW 19:26:58 18° NNW 19:32:21 10° NNE visible
01 Jun 13.9 00:13:08 10° NNW 00:23:30 19° NNE 00:37:53 10° ENE visible
01 Jun 13.5 02:34:17 10° NW 02:53:59 47° NNE 03:15:21 10° ESE visible
01 Jun 12.9 04:58:41 10° NW 05:22:39 83° SW 05:41:04 10° SE visible
01 Jun 13.0 19:46:28 10° NW 19:49:12 12° NNW 19:52:11 10° N visible
